Location: Schommer Observatory
(40.5200°N, 74.4500°W)
Time: 17:22:37
(UTC-05:00)

N. Korean satellite - Pass Details

Date: 11 November 2017
Orbit: 460 x 514 km, 97.2° (Epoch: 24 November)

Event Time Altitude Azimuth Distance (km) Brightness Sun altitude
Rises 18:22:37 0° 183° (S) 2,470 10.3 -19.0°
Reaches altitude 10° 18:24:44 10° 192° (SSW) 1,602 9.4 -19.4°
Maximum altitude 18:27:58 38° 262° (W) 718 8.0 -20.0°
Drops below altitude 10° 18:31:15 10° 332° (NNW) 1,628 9.5 -20.6°
Sets 18:33:25 0° 341° (NNW) 2,516 10.4 -21.0°
